DW9572 Weather Reports


Display with metric or nautical units.
time (UTC)temp
F
wind
direction
speed
MPH
gust
MPH
rain 1hr
in
rain 24hr
in
rain mn
in
humidity
%
barometer
mb
20260509223041 77 183 5.0 9.0 0.00 0.00 0.00 29 1016.9
20260509221540 76 108 6.0 8.0 0.00 0.00 0.00 29 1017.1
20260509220038 76 126 4.0 7.0 0.00 0.00 0.00 29 1017.2
20260509214534 76 110 4.0 8.0 0.00 0.00 0.00 30 1017.4
20260509213032 75 149 5.0 11.0 0.00 0.00 0.00 31 1017.7
20260509211531 75 200 6.0 10.0 0.00 0.00 0.00 32 1017.7
20260509210029 74 140 5.0 11.0 0.00 0.00 0.00 33 1017.8
20260509204522 74 157 4.0 8.0 0.00 0.00 0.00 34 1018.0
20260509203033 74 129 5.0 10.0 0.00 0.00 0.00 32 1018.1
20260509201501 73 122 5.0 10.0 0.00 0.00 0.00 33 1018.4
20260509200107 73 159 4.0 9.0 0.00 0.00 0.00 36 1018.6
20260509194541 72 141 5.0 11.0 0.00 0.00 0.00 38 1018.7
20260509193044 72 122 6.0 10.0 0.00 0.00 0.00 38 1019.0
20260509191518 71 111 7.0 10.0 0.00 0.00 0.00 39 1019.0
20260509190019 70 132 5.0 9.0 0.00 0.00 0.00 39 1019.1
20260509184602 70 203 5.0 10.0 0.00 0.00 0.00 39 1019.3
20260509183055 69 191 5.0 10.0 0.00 0.00 0.00 42 1019.6
20260509181534 69 321 3.0 9.0 0.00 0.00 0.00 42 1019.8
20260509180032 68 148 4.0 8.0 0.00 0.00 0.00 43 1019.8
20260509174516 67 100 7.0 10.0 0.00 0.00 0.00 45 1020.0
20260509173016 67 153 5.0 9.0 0.00 0.00 0.00 44 1020.1
20260509171553 67 143 5.0 10.0 0.00 0.00 0.00 44 1020.2
20260509170100 66 172 3.0 11.0 0.00 0.00 0.00 43 1020.3
20260509164531 66 173 4.0 8.0 0.00 0.00 0.00 44 1020.2
20260509163051 65 186 5.0 10.0 0.00 0.00 0.00 43 1020.2
20260509161518 65 212 6.0 14.0 0.00 0.00 0.00 46 1020.3
20260509160013 64 198 9.0 13.0 0.00 0.00 0.00 47 1020.3
20260509154510 64 195 9.0 14.0 0.00 0.00 0.00 48 1020.3
20260509153016 63 238 11.0 16.0 0.00 0.00 0.00 50 1020.3
20260509151504 61 203 10.0 15.0 0.00 0.00 0.00 53 1020.3
20260509150001 61 260 12.0 15.0 0.00 0.00 0.00 52 1020.4
20260509144602 60 250 9.0 15.0 0.00 0.00 0.00 54 1020.2
20260509143059 58 233 10.0 14.0 0.00 0.00 0.00 55 1020.1
20260509141533 57 263 6.0 10.0 0.00 0.00 0.00 57 1019.9
20260509140028 56 277 5.0 8.0 0.00 0.00 0.00 57 1019.9
20260509134506 54 261 7.0 9.0 0.00 0.00 0.00 58 1019.8
20260509133006 54 270 6.0 10.0 0.00 0.00 0.00 61 1019.6
20260509131547 54 263 7.0 9.0 0.00 0.00 0.00 61 1019.6
20260509130052 53 276 5.0 9.0 0.00 0.00 0.00 61 1019.5
20260509124540 53 278 5.0 11.0 0.00 0.00 0.00 62 1019.4
20260509123032 54 277 6.0 9.0 0.00 0.00 0.00 59 1019.6
20260509121538 54 280 3.0 6.0 0.00 0.00 0.00 59 1019.4
20260509120024 53 293 5.0 9.0 0.00 0.00 0.00 62 1019.4
20260509114545 53 276 6.0 9.0 0.00 0.00 0.00 62 1019.3
20260509113023 53 276 4.0 8.0 0.00 0.00 0.00 62 1019.3
20260509111521 52 229 4.0 8.0 0.00 0.00 0.00 58 1019.2
20260509110021 53 151 0.0 10.0 0.00 0.00 0.00 57 1019.1
20260509104503 52 16 1.0 7.0 0.00 0.00 0.00 60 1019.0
20260509103059 58 335 6.0 10.0 0.00 0.00 0.00 48 1018.7
20260509101541 56 49 2.0 9.0 0.00 0.00 0.00 52 1018.9
20260509100040 56 308 6.0 7.0 0.00 0.00 0.00 53 1018.7
20260509094525 56 345 3.0 8.0 0.00 0.00 0.00 50 1018.6
20260509093022 56 304 6.0 7.0 0.00 0.00 0.00 53 1018.6
20260509091504 55 311 3.0 4.0 0.00 0.00 0.00 51 1018.6
20260509090011 57 342 5.0 8.0 0.00 0.00 0.00 46 1018.5
20260509084547 57 359 0.0 0.0 0.00 0.00 0.00 49 1018.5
20260509083050 58 1 0.0 0.0 0.00 0.00 0.00 46 1018.4
20260509081531 59 62 0.0 1.0 0.00 0.00 0.00 42 1018.4
20260509080033 60 8 3.0 5.0 0.00 0.00 0.00 41 1018.2
20260509074534 61 233 7.0 15.0 0.00 0.00 0.00 44 1018.1
20260509073025 61 41 1.0 5.0 0.00 0.00 0.00 41 1017.8
20260509071524 60 82 7.0 12.0 0.00 0.00 0.00 44 1017.7
20260509070032 62 11 7.0 9.0 0.00 0.00 0.00 40 1017.1
20260509064521 62 311 7.0 9.0 0.00 0.00 0.00 41 1017.1
20260509063020 63 97 3.0 7.0 0.00 0.00 0.00 39 1017.2
20260509061520 65 293 1.0 16.0 0.00 0.00 0.00 37 1016.8
20260509060100 67 335 15.0 21.0 0.00 0.00 0.00 35 1016.4
20260509054600 67 360 11.0 21.0 0.00 0.00 0.00 35 1016.2
20260509053044 68 344 19.0 27.0 0.00 0.00 0.00 34 1016.0
20260509051543 67 323 11.0 22.0 0.00 0.00 0.00 34 1015.8
20260509050040 68 335 14.0 23.0 0.00 0.00 0.00 33 1015.7
20260509044518 68 335 14.0 20.0 0.00 0.00 0.00 32 1015.6
20260509043104 68 338 14.0 22.0 0.00 0.00 0.00 31 1015.6
20260509043002 68 343 16.0 22.0 0.00 0.00 0.00 31 1015.6
20260509041600 68 356 11.0 16.0 0.00 0.00 0.00 31 1015.5
20260509040048 68 349 9.0 14.0 0.00 0.00 0.00 29 1015.3
20260509034545 69 338 10.0 19.0 0.00 0.00 0.00 28 1014.9
20260509033058 69 332 11.0 18.0 0.00 0.00 0.00 27 1014.7
20260509031540 69 324 13.0 20.0 0.00 0.00 0.00 25 1014.5
20260509030039 70 326 11.0 20.0 0.00 0.00 0.00 23 1014.3
20260509024540 71 355 13.0 18.0 0.00 0.00 0.00 21 1014.0
20260509023036 72 347 14.0 23.0 0.00 0.00 0.00 20 1013.8
20260509021534 73 352 14.0 21.0 0.00 0.00 0.00 18 1013.7
20260509020022 74 350 16.0 23.0 0.00 0.00 0.00 17 1013.5
20260509014518 75 341 13.0 24.0 0.00 0.00 0.00 17 1013.4
20260509013001 76 336 17.0 24.0 0.00 0.00 0.00 17 1013.3
20260509011504 77 360 16.0 24.0 0.00 0.00 0.00 17 1013.2
20260509010101 78 343 10.0 21.0 0.00 0.00 0.00 18 1013.1
20260509004603 78 338 14.0 22.0 0.00 0.00 0.00 18 1013.2
20260509003102 79 336 10.0 20.0 0.00 0.00 0.00 16 1012.9
20260509001559 79 32 10.0 18.0 0.00 0.00 0.00 18 1012.8
20260509000058 80 358 9.0 16.0 0.00 0.00 0.00 17 1012.8
20260508234558 80 9 10.0 17.0 0.00 0.00 0.00 16 1012.7
20260508233039 80 309 5.0 18.0 0.00 0.00 0.00 18 1012.6
20260508231545 80 340 5.0 15.0 0.00 0.00 0.00 19 1012.7
20260508230020 79 285 0.0 12.0 0.00 0.00 0.00 18 1012.7
20260508224540 79 340 9.0 23.0 0.00 0.00 0.00 17 1012.9